Regional Weather Roundup
Issued by NWS Green Bay, WI

Home | Current Version | Previous Version | Text Only | Print | Product List | Glossary On
Versions: 1 2 3 4 5 6 7 8 9 10 11 12 13 14 15 16 17 18 19 20 21 22 23 24 25 26 27 28 29 30 31 32 33 34 35 36 37 38 39 40 41 42 43 44 45 46 47 48 49 50
000
ASUS43 KGRB 292300
RWRGRB

NORTH-CENTRAL AND NORTHEAST WISCONSIN REGIONAL WEATHER ROUNDUP
NATIONAL WEATHER SERVICE GREEN BAY WI
600 PM CDT MON JUN 29 2015

WIZ005-009-010>012-018-019-300000-
NORTH CENTRAL WISCONSIN

CITY           SKY/WX    TMP DP  RH WIND       PRES   REMARKS
IRONWOOD       NOT AVBL
MANITOWISH WTR NOT AVBL
ARBOR VITAE    NOT AVBL
EAGLE RIVER    NOT AVBL
LAND O LAKES   NOT AVBL
RHINELANDER    CLOUDY    64  59  83 NW6       29.78R
PHILLIPS       NOT AVBL
ANTIGO         NOT AVBL
TOMAHAWK       NOT AVBL
MERRILL        NOT AVBL
$$

WIZ013-073-300000-
NORTHEAST WISCONSIN

CITY           SKY/WX    TMP DP  RH WIND       PRES   REMARKS
IRON MOUNTAIN  HVY RAIN  61  59  93 N6        29.75R VSB 3/4
MARINETTE      CLOUDY    68  59  73 SW8       29.75S
$$

WIZ017-030-035>037-045-300000-
CENTRAL WISCONSIN

CITY           SKY/WX    TMP DP  RH WIND       PRES   REMARKS
MEDFORD        NOT AVBL
WAUSAU         CLOUDY    62  58  86 W8        29.76F
MOSINEE        NOT AVBL
MARSHFIELD     LGT RAIN  61  57  87 S7        29.78F FOG
WISC RAPIDS    CLOUDY    62  57  83 W8        29.82F
STEVENS POINT  NOT AVBL
WAUPACA        NOT AVBL
SHAWANO        NOT AVBL
CLINTONVILLE   NOT AVBL
$$

WIZ038-039-048-051-300000-
FOX VALLEY

CITY           SKY/WX    TMP DP  RH WIND       PRES   REMARKS
NWS GREEN BAY  LGT RAIN  69  62  78 SW3       29.76F
APPLETON       PTSUNNY   72  61  68 SW7       29.77F
OSHKOSH        CLOUDY    75  64  68 SW8       29.76F
FOND DU LAC    LGT RAIN  73  63  70 S6        29.78S
$$

WIZ022-050-052-300000-
EAST CENTRAL WISCONSIN

CITY           SKY/WX    TMP DP  RH WIND       PRES   REMARKS
STURGEON BAY   MOSUNNY   70  54  56 S10       29.78F
MANITOWOC      NOT AVBL
SHEBOYGAN      MOSUNNY   73  59  61 S12       29.78F
$$

LMZ563-521-522-541>543-300000-
LAKESHORE

STATION/POSITION TIME  TEMP    WIND        PRES    VSBY  WAVE
                       AIR SEA DIR/SP/G                  HT/PER
                 (UTC) (F)     (DEG/KT/KT) (MB)    (MI)  (FT/S)
SHEBOYGAN LKSHOR 2200   61     170/ 11/ 12 1009.1R
KEWAUNEE LKSHORE 2200   63     180/ 12/ 13 1008.1R
ALGOMA MARINA    2210          210/ 11/ 13   N/A
NORTHPORT PIER   2200   73     140/  8/ 10 1007.5F
N MID LAKE BUOY  2150   59 51  230/  6/  6 1008.2F         1
S GREEN BAY BUOY 2200   75 72  180/ 12/ 16 1008.9F
CHAMBERS ISLAND  2200   76     150/  7/ 12 1007.5F
MENOMINEE LKSHOR 2200   73     160/  7/ 10 1008.1F
$$


USA.gov is the U.S. government's official web portal to all federal, state and local government web resources and services.